Location: Hilton Head Island
(32.2163°N, 80.7526°W)
Time: 21:19:11
(UTC-04:00)

Explorer 7 - Pass Details

Date: 18 February 2026
Orbit: 430 x 541 km, 50.2° (Epoch: 12 March)

Event Time Altitude Azimuth Distance (km) Brightness Sun altitude
Rises 21:06:00 0° 320° (NW) 2,574 10.9 -37.4°
Enters shadow 21:06:40 - 322° (NW) 2,316 10.6 -37.5°
Reaches altitude 10° 21:08:16 10° 329° (NNW) 1,710 - -37.9°
Maximum altitude 21:11:54 37° 38° (NE) 814 - -38.6°
Drops below altitude 10° 21:15:38 10° 106° (ESE) 1,763 - -39.4°
Sets 21:18:00 0° 115° (ESE) 2,664 - -39.9°
